カタログに戻る

STARLINK-32458

運用中通信VLEO
NORAD 61962·PAYLOAD·🇺🇸 United States

打ち上げ Nov 14, 2024 から Cape Canaveral Space Force Station

Loading…

次のパス (今後24時間)

TLE

最新Source: CelesTrak SupGP

元期: Sep 15, 2026, 02:36 UTC

1 61962C 24210D   26258.10881944 -.00014078  00000+0 -50973-3 0  2587
2 61962  43.0028 175.7495 0001292 277.8675 126.6766 15.27595966    17

AllMySatでSTARLINK-32458をリアルタイム追跡

Download on the App Store